Weather History for KSNT - November, 2012

Change the Weather History Date:

Tuesday, November 20, 2012

  Actual Average Record
Temperature  
Mean Temperature 38 °F 21 °F  
Max Temperature 41 °F 32 °F 55 °F (2008)
Min Temperature 35 °F 10 °F -19 °F (1979)
Degree Days  
Heating Degree Days 27 44  
Month to date heating degree days 681 773  
Since 1 July heating degree days 2268 2637  
Cooling Degree Days 0 0  
Month to date cooling degree days 0 0  
Year to date cooling degree days 3 3  
Moisture  
Dew Point 33 °F    
Average Humidity 76    
Maximum Humidity 92    
Minimum Humidity 60    
Precipitation  
Precipitation 0.21 in 0.07 in 0.58 in (1921)
Month to date precipitation 1.02 1.63  
Year to date precipitation 19.07 15.31  
Sea Level Pressure  
Sea Level Pressure 29.93 in    
Wind  
Wind Speed 12 mph (SSE)    
Max Wind Speed 17 mph    
Max Gust Speed 29 mph    
T = Trace of Precipitation, MM = Missing Value Source: NWS Daily Summary

Daily Weather History Graph

Daily Weather History Graph

Search for Another Location

Airport or City:

Trip Planner

Search our weather history database for the weather conditions in past years. The results will help you decide how hot, cold, wet, or windy it might be!

Date:

Astronomy

Nov. 20, 2012 Rise Set
Actual Time 7:42 AM MST 5:08 PM MST
Civil Twilight 7:10 AM MST 5:39 PM MST
Nautical Twilight 6:35 AM MST 6:15 PM MST
Astronomical Twilight 6:00 AM MST 6:49 PM MST
Moon 1:10 PM MST (11/20) No Moon Set
Length of Visible Light 10h 29m
Length of Day
9h 25m
First Quarter, 52% of the Moon is Illuminated
Nov 20
First Quarter
Nov 28
Full
Dec 6
Last Quarter
Dec 13
New
Dec 19
First Quarter

Hourly Weather History & Observations

Time (MST) Temp. Windchill Dew Point Humidity Pressure Visibility Wind Dir Wind Speed Gust Speed Precip Events Conditions
12:51 AM 39.9 °F 32.5 °F 28.9 °F 65% 29.98 in - SSE 12.7 mph 19.6 mph N/A   Unknown
1:51 AM 41.0 °F 35.8 °F 28.0 °F 60% 29.97 in - South 8.1 mph 18.4 mph N/A   Unknown
2:51 AM 41.0 °F 33.9 °F 28.9 °F 62% 29.97 in - South 12.7 mph 23.0 mph N/A   Unknown
3:51 AM 39.0 °F 31.4 °F 30.9 °F 73% 29.99 in - SSE 12.7 mph 25.3 mph N/A   Unknown
4:51 AM 39.9 °F 31.4 °F 30.9 °F 70% 29.97 in - SSE 16.1 mph 26.5 mph N/A   Unknown
5:51 AM 39.9 °F 32.1 °F 30.9 °F 70% 29.97 in - SSE 13.8 mph 20.7 mph N/A   Unknown
6:51 AM 39.0 °F 31.8 °F 32.0 °F 76% 29.97 in - SSE 11.5 mph 19.6 mph N/A   Unknown
7:51 AM 37.0 °F 29.3 °F 33.1 °F 86% 29.99 in - SE 11.5 mph 24.2 mph N/A   Unknown
8:51 AM 35.1 °F 27.4 °F 33.1 °F 92% 30.00 in - SSE 10.4 mph 19.6 mph 0.02 in   Unknown
9:51 AM 35.1 °F 27.9 °F 33.1 °F 92% 30.01 in - South 9.2 mph - 0.02 in   Unknown
10:51 AM 35.1 °F 27.4 °F 33.1 °F 92% 29.99 in - SSE 10.4 mph 19.6 mph 0.02 in   Unknown
11:51 AM 36.0 °F 28.0 °F 34.0 °F 93% 29.97 in - SSE 11.5 mph - 0.03 in   Unknown
12:51 PM 37.0 °F 29.3 °F 34.0 °F 89% 29.94 in - SSE 11.5 mph 21.9 mph 0.03 in   Unknown
1:51 PM 37.0 °F 28.9 °F 34.0 °F 89% 29.91 in - SE 12.7 mph 20.7 mph 0.08 in   Unknown
2:51 PM 37.0 °F 28.1 °F 34.0 °F 89% 29.89 in - SE 15.0 mph 24.2 mph N/A   Unknown
3:51 PM 39.0 °F 31.4 °F 35.1 °F 86% 29.89 in - SSE 12.7 mph 21.9 mph N/A   Unknown
4:51 PM 39.0 °F 32.3 °F 34.0 °F 82% 29.87 in - SE 10.4 mph 23.0 mph N/A   Unknown
5:51 PM 39.0 °F 32.3 °F 34.0 °F 82% 29.87 in - South 10.4 mph 16.1 mph N/A   Unknown
6:51 PM 39.0 °F 32.8 °F 34.0 °F 82% 29.87 in - SSE 9.2 mph - N/A   Unknown
7:51 PM 37.9 °F 31.5 °F 34.0 °F 86% 29.87 in - SSE 9.2 mph 18.4 mph N/A   Unknown
8:51 PM 37.9 °F 31.5 °F 34.0 °F 86% 29.87 in - SSE 9.2 mph - N/A   Unknown
9:51 PM 39.0 °F 31.4 °F 34.0 °F 82% 29.85 in - SSE 12.7 mph 18.4 mph 0.01 in   Unknown
10:51 PM 39.0 °F 32.8 °F 33.1 °F 79% 29.81 in - South 9.2 mph 18.4 mph N/A   Unknown
11:51 PM 39.0 °F 30.6 °F 34.0 °F 82% 29.80 in - SE 15.0 mph 24.2 mph N/A   Unknown